Regional Weather Roundup
Issued by NWS

Home | Current Version | Previous Version | Text Only | Print | Product List | Glossary Off
Versions: 1 2 3 4 5 6 7 8 9 10 11 12 13 14 15 16 17 18 19 20 21 22 23 24 25 26 27 28 29 30 31 32 33 34 35 36 37 38 39 40 41 42 43 44 45 46 47 48 49 50

000
ASUS43 KIND 251409
RWRIN

WEATHER ROUNDUP FOR INDIANA
NATIONAL WEATHER SERVICE INDIANAPOLIS IN
900 AM EST TUE NOV 25 2014

NOTE: "FAIR" INDICATES FEW OR NO CLOUDS BELOW 12,000 FEET WITH NO
SIGNIFICANT WEATHER AND/OR OBSTRUCTIONS TO VISIBILITY.

* - STATION DOES NOT REPORT WEATHER SUCH AS PRECIPITATION OR FOG.

+ - STATION NOT QUALITY CONTROLLED BY THE NATIONAL WEATHER SERVICE.
    USE DATA WITH CAUTION...ESPECIALLY DEWPOINT AND RELATIVE
    HUMIDITY OBSERVATIONS.

INZ001>003-010>013-019-020-251500-
NORTHWEST INDIANA

CITY           SKY/WX    TMP DP  RH WIND       PRES   REMARKS
GARY /AIRPORT/ CLOUDY    25  18  74 W12G23    30.04  WCI  14
KNOX *+        CLOUDY    24  17  75 W15G25    30.03R WCI  11
LA PORTE +     CLOUDY    25  19  77 W13G18    30.03R WCI  14
MICHIGAN CITY+ CLOUDY    25  18  74 SW10G16   30.02R WCI  15
MONTICELLO +   CLOUDY    26  21  80 W13G21    30.04R WCI  15
RENSSELAER +   PTSUNNY   27  23  86 W15G22    30.06R WCI  15
VALPARAISO     CLOUDY    22  16  78 W13       30.03R WCI  10

$$

LMZ046-743>745-251500-
SOUTHERN LAKE MICHIGAN

STATION/POSITION TIME  TEMP WIND        PRES
                       AIR  DIR/SP/G
                 (UTC) (F)  (DEG/KT/KT) (MB)
MICHIGAN CITY    1400   24  230/ 21/ 25   N/A

$$

INZ004-005-014>016-021>024-251500-
NORTH CENTRAL INDIANA

CITY           SKY/WX    TMP DP  RH WIND       PRES   REMARKS
ELKHART        CLOUDY    27  18  69 W12G17    29.99R WCI  16
GOSHEN         CLOUDY   N/A N/A N/A W16       29.99R
LOGANSPORT +   CLOUDY    28  23  80 W13G21    30.05R WCI  18
PERU/GRISSOM   CLOUDY    29  29  99 W17       30.02R WCI  17
ROCHESTER +    CLOUDY    30  27  86 W16G22    30.03R WCI  19
SOUTH BEND     CLOUDY    25  18  74 W14       30.00R WCI  13
WARSAW +       CLOUDY    28  23  80 W15       30.00R WCI  17

$$

INZ006>009-017-018-025>027-251500-
NORTHEAST INDIANA

CITY           SKY/WX    TMP DP  RH WIND       PRES   REMARKS
ANGOLA *+      CLOUDY    28  23  80 W10G23    29.95R WCI  19
AUBURN +       CLOUDY    32  25  74 W12G18    29.98R WCI  23
FORT WAYNE     CLOUDY    30  25  81 W15       30.00R WCI  19
HUNTINGTON +   CLOUDY    31  26  82 W14G22    30.00R WCI  20

$$

INZ028-029-035-036-043>045-051>053-251500-
WEST CENTRAL INDIANA

CITY           SKY/WX    TMP DP  RH WIND       PRES   REMARKS
CRAWFORDSVL +  CLOUDY    28  23  80 W12       30.06  WCI  18
GREENCASTLE +  CLOUDY    32  27  80 W5        30.06R WCI  27
LAFAYETTE      CLOUDY    27  21  78 W13       30.07R WCI  16
TERRE HAUTE    CLOUDY    32  24  72 W10       30.09R WCI  24

$$

INZ030>032-037>040-046>048-054>057-064-065-251500-
CENTRAL INDIANA

CITY           SKY/WX    TMP DP  RH WIND       PRES   REMARKS
ANDERSON       CLOUDY    34  25  69 W12       30.03  WCI  25
CP ATTERBURY + CLOUDY    36  30  80 SW7       30.07R
COLUMBUS       CLOUDY    34  30  86 SW12      30.07R WCI  25
FRANKFORT +    CLOUDY    29  26  86 W17       30.06R WCI  17
INDIANAPOLIS   CLOUDY    33  26  75 W14       30.04R WCI  23
-EAGLE CREEK   CLOUDY    33  26  75 W15G21    30.04R WCI  23
KOKOMO *+      CLOUDY    30  25  80 W18       30.02R WCI  18
MARION +         N/A     31  26  81 W14       30.02R WCI  21
MT COMFORT *+  PTSUNNY   34  23  64 W9        30.04R WCI  26
SHELBYVILLE    CLOUDY    36  29  75 SW7       30.04R
ZIONSVILLE +   CLOUDY    32  25  76 W12G18    30.04R WCI  23

$$

INZ033-034-041-042-049-050-058-059-251500-
EAST CENTRAL INDIANA

CITY           SKY/WX    TMP DP  RH WIND       PRES   REMARKS
MUNCIE         CLOUDY    34  26  72 W13       30.01R WCI  25

$$

INZ060-061-067>069-081>083-085>088-251500-
SOUTHWEST INDIANA

CITY           SKY/WX    TMP DP  RH WIND       PRES   REMARKS
EVANSVILLE     SUNNY     34  25  69 W8        30.14R WCI  27
HUNTINGBURG *+ SUNNY     32  25  74 W5        30.13R WCI  27
WASHINGTON +   SUNNY     32  27  80 W8        30.12R WCI  25

$$

INZ062-063-066-070>080-084-089>092-251500-
SOUTH CENTRAL AND SOUTHEAST INDIANA

CITY           SKY/WX    TMP DP  RH WIND       PRES   REMARKS
BLOOMINGTON    SUNNY     32  26  78 W8        30.07R WCI  25
SEYMOUR +      SUNNY     36  28  75 W12       30.09

$$




USA.gov is the U.S. government's official web portal to all federal, state and local government web resources and services.